Regional Weather Roundup
Issued by NWS

Home | Current Version | Previous Version | Graphics & Text | Print | Product List | Glossary On
Versions: 1 2 3 4 5 6 7 8 9 10 11 12 13 14 15 16 17 18 19 20 21 22 23 24 25 26 27 28 29 30 31 32 33 34 35 36 37 38 39 40 41 42 43 44 45 46 47 48 49 50
000
ASUS43 KOAX 230303
RWRNE

WEATHER ROUNDUP FOR NEBRASKA
NATIONAL WEATHER SERVICE OMAHA NE
1000 PM CDT TUE MAY 22 2018

NOTES: SATELLITE DATA IS BEING USED TO AUGMENT CLOUD COVER ABOVE
       12000 FEET.
       "FAIR" INDICATES FEW OR NO CLOUDS BELOW 12,000 FEET WITH NO
       SIGNIFICANT WEATHER AND/OR OBSTRUCTIONS TO VISIBILITY.


NEZ001>004-019>022-054>056-230400-
NEBRASKA PANHANDLE

CITY           SKY/WX    TMP DP  RH WIND       PRES   REMARKS
SCOTTSBLUFF    CLOUDY    69  58  67 E8        29.88R
ALLIANCE       MOCLDY    62  57  83 E9        29.89R
CHADRON        MOCLDY    63  55  75 N10       29.88S
KIMBALL        CLOUDY    64  54  69 SE6       29.94R
SIDNEY         PTCLDY    64  53  67 SE9       29.91R
$$

NEZ057>060-069>072-079>082-230400-
SOUTHWEST NEBRASKA

CITY           SKY/WX    TMP DP  RH WIND       PRES   REMARKS
NORTH PLATTE   PTCLDY    68  57  68 SE8       29.91R
IMPERIAL       MOCLDY    69  54  58 SE12      29.90R
LEXINGTON      MOCLDY    73  57  56 SE12      29.92S
MCCOOK         PTCLDY    70  59  68 SE10      29.90R
OGALLALA       MOCLDY    69  57  65 SE6       29.91R
$$

NEZ005>010-023>029-035>040-094-230400-
NORTH CENTRAL NEBRASKA

CITY           SKY/WX    TMP DP  RH WIND       PRES   REMARKS
VALENTINE      MOCLDY    74  61  63 E8        29.91R
AINSWORTH      MOCLDY    69  64  85 E6        29.92S
BROKEN BOW     MOCLDY    71  56  58 S13G29    29.94R
ORD            MOCLDY    77  63  61 SE10      29.91R
THEDFORD       MOCLDY    74  61  63 SE5       29.93R
$$

NEZ041-046>049-061>064-073>077-083>087-230400-
SOUTH CENTRAL NEBRASKA

CITY           SKY/WX    TMP DP  RH WIND       PRES   REMARKS
GRAND ISLAND   PTCLDY    77  61  57 S13       29.94R
AURORA         PTCLDY    76  59  53 S9        29.95R
HASTINGS       PTCLDY    77  61  57 S10       29.95R
HEBRON         PTCLDY    77  64  63 SE10      29.96R
HOLDREGE       MOCLDY    74  61  64 SE12      29.94R
KEARNEY        MOCLDY    76  62  62 S16       29.93R
YORK           PTCLDY    75  64  69 S10       29.95R
$$

NEZ011>018-030>034-042>045-230400-
NORTHEAST NEBRASKA

CITY           SKY/WX    TMP DP  RH WIND       PRES   REMARKS
NORFOLK        PTCLDY    73  63  70 S8        29.90R
ALBION         PTCLDY    74  64  71 S5        29.93R
COLUMBUS       CLOUDY    77  62  59 SE10      29.94R
FREMONT        PTCLDY    76  65  67 SE8       29.96R
TEKAMAH        PTCLDY    73  67  81 SE14      29.94R
WAYNE          MOCLDY    71  70  96 SE10      29.93R
$$

NEZ050>053-065>068-078-088>093-230400-
SOUTHEAST NEBRASKA

CITY           SKY/WX    TMP DP  RH WIND       PRES   REMARKS
LINCOLN        PTCLDY    77  62  59 S10       29.96R
OMAHA EPPLEY   MOCLDY    77  63  61 SE9       29.96R
BEATRICE       PTCLDY    79  64  60 S12       29.97R
FALLS CITY     CLEAR     74  62  66 SE7       29.98R
NEBRASKA CITY  CLEAR     76  63  64 S9        29.98R
PLATTSMOUTH    PTCLDY    74  63  68 SE6       29.98R
$$

NEZ044-045-051>053-067-230400-
OMAHA AREA

CITY           SKY/WX    TMP DP  RH WIND       PRES   REMARKS
OMAHA EPPLEY   MOCLDY    77  63  61 SE9       29.96R
FREMONT        PTCLDY    76  65  67 SE8       29.96R
OFFUTT AFB     CLOUDY    73  65  74 SE7       29.95R
PLATTSMOUTH    PTCLDY    74  63  68 SE6       29.98R
WAHOO          FAIR      75  60  60 S9        29.95R
$$




USA.gov is the U.S. government's official web portal to all federal, state and local government web resources and services.